| time (UTC) | temp F | wind direction | speed MPH | gust MPH | rain 1hr in | rain 24hr in | rain mn in | humidity % | barometer mb |
| 20260831193040 | 78 | 352 | 0.0 | 6.0 | 0.00 | 0.01 | 0.01 | 66 | 1020.8 |
| 20260831191539 | 76 | 150 | 0.0 | 3.0 | 0.00 | 0.01 | 0.01 | 67 | 1021.0 |
| 20260831190044 | 76 | 108 | 0.0 | 6.0 | 0.00 | 0.01 | 0.01 | 68 | 1021.1 |
| 20260831184521 | 77 | 154 | 1.0 | 4.0 | 0.00 | 0.01 | 0.01 | 66 | 1021.0 |
| 20260831183020 | 77 | 134 | 0.0 | 6.0 | 0.00 | 0.01 | 0.01 | 64 | 1021.1 |
| 20260831181502 | 78 | 67 | 1.0 | 8.0 | 0.00 | 0.01 | 0.01 | 65 | 1021.1 |
| 20260831180001 | 77 | 133 | 0.0 | 5.0 | 0.00 | 0.01 | 0.01 | 67 | 1021.2 |
| 20260831174543 | 79 | 56 | 1.0 | 5.0 | 0.00 | 0.01 | 0.01 | 66 | 1021.2 |
| 20260831173045 | 79 | 125 | 0.0 | 4.0 | 0.00 | 0.01 | 0.01 | 63 | 1021.3 |
| 20260831171527 | 80 | 286 | 0.0 | 6.0 | 0.00 | 0.01 | 0.01 | 60 | 1021.3 |
| 20260831170023 | 81 | 122 | 0.0 | 3.0 | 0.00 | 0.01 | 0.01 | 63 | 1021.3 |
| 20260831164503 | 79 | 290 | 0.0 | 4.0 | 0.00 | 0.01 | 0.01 | 64 | 1021.6 |
| 20260831163003 | 78 | 331 | 0.0 | 4.0 | 0.00 | 0.01 | 0.01 | 66 | 1021.5 |
| 20260831161650 | 78 | 84 | 2.0 | 4.0 | 0.00 | 0.01 | 0.01 | 64 | 1021.7 |
| 20260831160048 | 78 | 79 | 0.0 | 6.0 | 0.00 | 0.01 | 0.01 | 64 | 1021.8 |
| 20260831154546 | 78 | 95 | 1.0 | 7.0 | 0.00 | 0.01 | 0.01 | 63 | 1021.9 |
| 20260831153045 | 77 | 76 | 1.0 | 5.0 | 0.00 | 0.01 | 0.01 | 62 | 1021.8 |
| 20260831151543 | 77 | 339 | 2.0 | 6.0 | 0.00 | 0.01 | 0.01 | 65 | 1021.8 |
| 20260831150043 | 77 | 55 | 0.0 | 3.0 | 0.00 | 0.01 | 0.01 | 70 | 1021.9 |
| 20260831144539 | 76 | 73 | 0.0 | 5.0 | 0.00 | 0.01 | 0.01 | 72 | 1022.0 |
| 20260831143049 | 75 | 75 | 0.0 | 5.0 | 0.00 | 0.01 | 0.01 | 69 | 1022.1 |
| 20260831141518 | 75 | 285 | 0.0 | 3.0 | 0.00 | 0.01 | 0.01 | 72 | 1021.9 |
| 20260831140017 | 75 | 82 | 0.0 | 1.0 | 0.00 | 0.01 | 0.01 | 72 | 1021.9 |
| 20260831134556 | 74 | 108 | 0.0 | 3.0 | 0.00 | 0.01 | 0.01 | 79 | 1021.7 |
| 20260831133052 | 73 | 263 | 0.0 | 3.0 | 0.00 | 0.01 | 0.01 | 77 | 1021.6 |
| 20260831131545 | 73 | 256 | 1.0 | 3.0 | 0.00 | 0.01 | 0.01 | 80 | 1021.9 |
| 20260831130031 | 72 | 298 | 0.0 | 3.0 | 0.00 | 0.01 | 0.01 | 83 | 1021.7 |
| 20260831124521 | 70 | 299 | 0.0 | 2.0 | 0.00 | 0.01 | 0.01 | 85 | 1021.8 |
| 20260831123015 | 68 | 294 | 0.0 | 2.0 | 0.00 | 0.01 | 0.01 | 87 | 1021.6 |
| 20260831121515 | 68 | 146 | 0.0 | 1.0 | 0.00 | 0.01 | 0.01 | 89 | 1021.6 |
| 20260831120012 | 65 | 274 | 0.0 | 1.0 | 0.01 | 0.01 | 0.01 | 95 | 1021.6 |
| 20260831114511 | 64 | 253 | 0.0 | 0.0 | 0.01 | 0.01 | 0.01 | 96 | 1021.4 |
| 20260831113009 | 64 | 152 | 0.0 | 0.0 | 0.01 | 0.01 | 0.01 | 96 | 1021.3 |
| 20260831111504 | 63 | 152 | 0.0 | 0.0 | 0.01 | 0.01 | 0.01 | 96 | 1021.0 |
| 20260831110002 | 62 | 152 | 0.0 | 0.0 | 0.00 | 0.00 | 0.00 | 96 | 1020.7 |
| 20260831104545 | 61 | 152 | 0.0 | 0.0 | 0.00 | 0.00 | 0.00 | 96 | 1020.7 |
| 20260831103044 | 61 | 152 | 0.0 | 0.0 | 0.00 | 0.00 | 0.00 | 96 | 1020.7 |
| 20260831101527 | 61 | 152 | 0.0 | 0.0 | 0.00 | 0.00 | 0.00 | 96 | 1020.7 |
| 20260831100025 | 61 | 152 | 0.0 | 0.0 | 0.00 | 0.00 | 0.00 | 96 | 1020.8 |
| 20260831094509 | 61 | 152 | 0.0 | 0.0 | 0.00 | 0.00 | 0.00 | 96 | 1020.7 |
| 20260831093005 | 61 | 152 | 0.0 | 0.0 | 0.00 | 0.00 | 0.00 | 95 | 1020.7 |
| 20260831091557 | 61 | 152 | 0.0 | 0.0 | 0.00 | 0.00 | 0.00 | 96 | 1020.4 |
| 20260831090047 | 60 | 152 | 0.0 | 0.0 | 0.00 | 0.00 | 0.00 | 95 | 1020.4 |
| 20260831084531 | 60 | 152 | 0.0 | 0.0 | 0.00 | 0.00 | 0.00 | 95 | 1020.4 |
| 20260831083037 | 61 | 152 | 0.0 | 0.0 | 0.00 | 0.00 | 0.00 | 94 | 1020.5 |
| 20260831081509 | 61 | 152 | 0.0 | 0.0 | 0.00 | 0.00 | 0.00 | 94 | 1020.5 |
| 20260831080006 | 61 | 152 | 0.0 | 0.0 | 0.00 | 0.00 | 0.00 | 94 | 1020.4 |
| 20260831074548 | 62 | 152 | 0.0 | 0.0 | 0.00 | 0.00 | 0.00 | 93 | 1020.5 |
| 20260831073045 | 62 | 152 | 0.0 | 0.0 | 0.00 | 0.00 | 0.00 | 93 | 1020.5 |
| 20260831071524 | 63 | 152 | 0.0 | 0.0 | 0.00 | 0.00 | 0.00 | 93 | 1020.1 |
| 20260831070026 | 64 | 152 | 0.0 | 0.0 | 0.00 | 0.00 | 0.00 | 92 | 1020.3 |
| 20260831064504 | 64 | 152 | 0.0 | 0.0 | 0.00 | 0.00 | 0.00 | 90 | 1020.1 |
| 20260831063101 | 65 | 170 | 0.0 | 1.0 | 0.00 | 0.00 | 0.00 | 89 | 1019.9 |
| 20260831061542 | 66 | 262 | 0.0 | 4.0 | 0.00 | 0.00 | 0.00 | 89 | 1019.9 |
| 20260831060042 | 66 | 281 | 0.0 | 2.0 | 0.00 | 0.00 | 0.00 | 91 | 1019.6 |
| 20260831054522 | 66 | 272 | 0.0 | 1.0 | 0.00 | 0.00 | 0.00 | 90 | 1019.6 |
| 20260831053020 | 67 | 272 | 0.0 | 1.0 | 0.00 | 0.00 | 0.00 | 90 | 1019.6 |
| 20260831051600 | 67 | 177 | 0.0 | 0.0 | 0.00 | 0.00 | 0.00 | 91 | 1019.6 |
| 20260831050057 | 68 | 232 | 0.0 | 1.0 | 0.00 | 0.00 | 0.00 | 90 | 1019.6 |
| 20260831044538 | 69 | 236 | 0.0 | 6.0 | 0.00 | 0.00 | 0.00 | 91 | 1019.7 |
| 20260831043034 | 70 | 75 | 0.0 | 0.0 | 0.00 | 0.00 | 0.00 | 93 | 1019.6 |
| 20260831041555 | 70 | 75 | 0.0 | 0.0 | 0.00 | 0.00 | 0.00 | 93 | 1019.6 |
| 20260831040021 | 70 | 74 | 0.0 | 0.0 | 0.00 | 0.00 | 0.00 | 92 | 1019.6 |
| 20260831034520 | 70 | 74 | 0.0 | 0.0 | 0.00 | 0.00 | 0.00 | 92 | 1019.5 |
| 20260831033023 | 71 | 74 | 0.0 | 1.0 | 0.00 | 0.00 | 0.00 | 91 | 1019.6 |
| 20260831031519 | 71 | 290 | 0.0 | 2.0 | 0.00 | 0.00 | 0.00 | 91 | 1019.7 |
| 20260831030018 | 71 | 328 | 0.0 | 4.0 | 0.00 | 0.00 | 0.00 | 89 | 1019.7 |
| 20260831024517 | 72 | 249 | 1.0 | 6.0 | 0.00 | 0.00 | 0.00 | 88 | 1019.7 |
| 20260831023018 | 72 | 266 | 1.0 | 4.0 | 0.00 | 0.00 | 0.00 | 88 | 1019.7 |
| 20260831021509 | 72 | 273 | 1.0 | 5.0 | 0.00 | 0.00 | 0.00 | 89 | 1019.4 |
| 20260831020004 | 72 | 326 | 0.0 | 3.0 | 0.00 | 0.00 | 0.00 | 91 | 1019.5 |
| 20260831014506 | 72 | 149 | 0.0 | 2.0 | 0.00 | 0.00 | 0.00 | 91 | 1019.3 |
| 20260831013003 | 72 | 101 | 0.0 | 1.0 | 0.00 | 0.00 | 0.00 | 91 | 1019.2 |
| 20260831011505 | 72 | 53 | 0.0 | 1.0 | 0.00 | 0.00 | 0.00 | 90 | 1019.1 |
| 20260831010001 | 72 | 146 | 0.0 | 0.0 | 0.00 | 0.00 | 0.00 | 89 | 1019.3 |
| 20260831004600 | 72 | 150 | 0.0 | 0.0 | 0.00 | 0.00 | 0.00 | 88 | 1019.3 |
| 20260831003058 | 72 | 150 | 0.0 | 0.0 | 0.00 | 0.00 | 0.00 | 87 | 1019.2 |
| 20260831001542 | 72 | 150 | 0.0 | 0.0 | 0.00 | 0.00 | 0.00 | 86 | 1019.1 |
| 20260831000055 | 73 | 147 | 0.0 | 0.0 | 0.00 | 0.00 | 0.00 | 85 | 1019.0 |
| 20260830234529 | 73 | 60 | 0.0 | 2.0 | 0.00 | 0.00 | 0.00 | 84 | 1018.9 |
| 20260830233029 | 73 | 143 | 0.0 | 1.0 | 0.00 | 0.00 | 0.00 | 83 | 1018.9 |
| 20260830231528 | 73 | 92 | 0.0 | 2.0 | 0.00 | 0.00 | 0.00 | 83 | 1018.8 |
| 20260830230027 | 74 | 94 | 0.0 | 5.0 | 0.00 | 0.00 | 0.00 | 82 | 1018.9 |
| 20260830224527 | 74 | 294 | 0.0 | 2.0 | 0.00 | 0.00 | 0.00 | 82 | 1018.8 |
| 20260830223028 | 75 | 171 | 0.0 | 1.0 | 0.00 | 0.00 | 0.00 | 81 | 1018.9 |
| 20260830221525 | 75 | 140 | 0.0 | 3.0 | 0.00 | 0.00 | 0.00 | 79 | 1019.0 |
| 20260830220127 | 75 | 109 | 1.0 | 3.0 | 0.00 | 0.00 | 0.00 | 79 | 1018.9 |
| 20260830214515 | 75 | 201 | 0.0 | 4.0 | 0.00 | 0.00 | 0.00 | 78 | 1018.9 |
| 20260830213012 | 76 | 253 | 1.0 | 7.0 | 0.00 | 0.00 | 0.00 | 77 | 1018.9 |
| 20260830211511 | 76 | 175 | 0.0 | 6.0 | 0.00 | 0.00 | 0.00 | 76 | 1018.9 |
| 20260830210011 | 77 | 41 | 0.0 | 5.0 | 0.00 | 0.00 | 0.00 | 74 | 1019.0 |
| 20260830204508 | 77 | 249 | 0.0 | 4.0 | 0.00 | 0.00 | 0.00 | 73 | 1019.2 |
| 20260830203008 | 77 | 348 | 0.0 | 4.0 | 0.00 | 0.00 | 0.00 | 73 | 1019.2 |
| 20260830201507 | 77 | 271 | 0.0 | 3.0 | 0.00 | 0.00 | 0.00 | 71 | 1019.2 |
| 20260830200006 | 78 | 297 | 0.0 | 0.0 | 0.00 | 0.00 | 0.00 | 71 | 1019.3 |
| 20260830194505 | 79 | 323 | 0.0 | 4.0 | 0.00 | 0.00 | 0.00 | 70 | 1019.4 |